Location: Eldred Sherwood Park Lake Dam
(42.9416°N, 93.5655°W)
Time: 14:29:28
(UTC+00:00)

SR - All Passes

Search period start: 02 November 2024 00:00
Search period end: 12 November 2024 00:00
Orbit: 576 x 856 km, 66.7° (Epoch: 01 November)

Date Brightness Start Highest point End Pass type
(mag) Time Alt. Az. Time Alt. Az. Time Alt. Az.
02 Nov - 06:25:35 10° SSE 06:28:25 18° ESE 06:31:19 10° ENE night (unlit)
02 Nov - 08:05:39 10° SW 08:09:44 46° NW 08:14:05 10° NNE night (unlit)
02 Nov - 15:01:53 10° N 15:06:00 24° NE 15:10:20 10° E daylight
02 Nov - 16:43:02 10° NW 16:48:08 60° WSW 16:53:36 10° SSE daylight
03 Nov - 07:12:17 10° SSW 07:16:30 75° ESE 07:20:58 10° NE night (unlit)
03 Nov - 08:56:14 10° WNW 08:58:53 16° NW 09:01:39 10° N visible
03 Nov - 14:09:39 10° N 14:12:16 14° NE 14:14:58 10° ENE daylight
03 Nov - 15:49:48 10° NNW 15:54:56 68° ENE 16:00:27 10° SE daylight
03 Nov - 17:32:47 10° WNW 17:36:20 18° WSW 17:40:00 10° SSW daylight
04 Nov - 06:19:47 10° S 06:23:30 30° ESE 06:27:23 10° NE night (unlit)
04 Nov - 08:01:28 10° WSW 08:05:13 29° NW 08:09:12 10° NNE night (unlit)
04 Nov - 14:56:52 10° NNW 15:01:34 35° NE 15:06:33 10° ESE daylight
04 Nov - 16:38:35 10° NW 16:43:24 38° WSW 16:48:29 10° S daylight
05 Nov - 05:28:49 10° SE 05:30:42 13° ESE 05:32:38 10° ENE night (unlit)
05 Nov - 07:07:35 10° SW 07:11:49 63° WNW 07:16:17 10° NNE night (unlit)
05 Nov - 08:53:29 10° NW 08:54:38 11° NW 08:55:47 10° NNW visible
05 Nov - 14:04:14 10° N 14:07:58 20° NE 14:11:51 10° E daylight
05 Nov - 15:45:05 10° NNW 15:50:18 78° WSW 15:55:52 10° SSE daylight
05 Nov - 17:30:07 10° W 17:31:22 11° WSW 17:32:39 10° WSW daylight
06 Nov - 06:14:30 10° SSW 06:18:38 54° ESE 06:23:00 10° NE night (unlit)
06 Nov - 07:57:37 10° W 08:00:48 19° NW 08:04:07 10° N night (unlit)
06 Nov - 13:12:24 10° NNE 13:14:07 11° NE 13:15:51 10° NE daylight
06 Nov - 14:51:57 10° NNW 14:57:00 53° NE 15:02:26 10° SE daylight
06 Nov - 16:34:22 10° WNW 16:38:33 24° WSW 16:42:56 10° SSW daylight
07 Nov - 05:22:23 10° SSE 05:25:41 22° ESE 05:29:09 10° ENE night (unlit)
07 Nov - 07:03:11 10° WSW 07:07:12 38° NW 07:11:27 10° NNE night (unlit)
07 Nov - 13:59:05 10° NNW 14:03:32 28° NE 14:08:13 10° ESE daylight
07 Nov - 15:40:29 10° NW 15:45:33 49° WSW 15:50:55 10° S daylight
08 Nov - 06:09:35 10° SSW 06:13:50 86° WNW 06:18:23 10° NNE night (unlit)
08 Nov - 07:54:13 10° WNW 07:56:26 13° NW 07:58:43 10° N night (unlit)
08 Nov - 13:06:37 10° N 13:09:50 16° NE 13:13:10 10° E daylight
08 Nov - 14:47:07 10° NNW 14:52:22 82° ENE 14:57:57 10° SSE daylight
08 Nov - 16:30:41 10° WNW 16:33:37 15° WSW 16:36:37 10° SW daylight
09 Nov - 05:16:48 10° S 05:20:45 39° ESE 05:24:55 10° NE night (unlit)
09 Nov - 06:59:05 10° WSW 07:02:40 24° NW 07:06:26 10° N night (unlit)
09 Nov - 13:54:05 10° NNW 13:59:00 42° NE 14:04:14 10° ESE daylight
09 Nov - 15:36:05 10° NW 15:40:42 31° WSW 15:45:35 10° S daylight
10 Nov - 04:25:10 10° SE 04:27:52 17° ESE 04:30:39 10° ENE night (unlit)
10 Nov - 06:04:58 10° SW 06:09:08 50° NW 06:13:35 10° NNE night (unlit)
10 Nov - 13:01:19 10° N 13:05:25 23° NE 13:09:44 10° E daylight
10 Nov - 14:42:25 10° NW 14:47:37 65° WSW 14:53:10 10° SSE daylight
11 Nov - 05:11:38 10° SSW 05:15:52 70° ESE 05:20:22 10° NE night (unlit)
11 Nov - 06:55:21 10° W 06:58:13 17° NW 07:01:12 10° N night (unlit)
11 Nov - 12:09:03 10° N 12:11:37 14° NE 12:14:14 10° ENE visible
11 Nov - 13:49:09 10° NNW 13:54:21 64° ENE 13:59:54 10° SE daylight
11 Nov - 15:31:59 10° WNW 15:35:47 20° WSW 15:39:42 10° SSW daylight
